CZ-6A DEB, 54327

Orbit data source: Space-Track

CZ-6A DEB, 54327 is space debris in SSO originally from a launch on Fri, 11 Nov 2022 UTC launched from the Taiyaun Space Center, China (TSC). Debris objects in space refer to the collection of defunct objects orbiting the Earth. Examples of debris include non-operational satellites, rocket bodies, and fragments generated from explosions, collisions, or faulty payload assembly.

Loading next visibility...
Identifier
54327, 2022-151BW
Orbit
SSO
Country
Flag of CNCN / PRC
Related business
Manufacturer
SAST
Mission
Spacecraft
Bus & Motor
Unknown
Mass
Unknown
Launch date (UTC)
2022-11-11 (4 years ago)
Launch vehicle
Unknown
Launch site
Taiyaun Space Center, China (TSC)
Object type
Payload
Rocket body
Debris
Shape & HBR
Unknown shape, 0.1 m
Radar Cross Section
Medium (>0.1 m² and <1 m²)

Expand to show TLE details & history
Last TLE update: 15 hours ago

TLE from 15 hours ago
0 CZ-6A DEB
1 54327U 22151BW  26263.44909137  .00000418  00000-0  25074-3 0  9992
2 54327  98.8353 259.2759 0049191  67.0603 293.5749 14.11665443197892
Epoch: 2026-09-20T10:46Z
TLE epoch observation values (Epoch: 2026-09-20T10:46:41.494Z)
Latitude
-0.00001°
Longitude
98.25989°
Altitude
842.494 km
Speed
7.439 km/s
True Right ascension
17h 17m 06s
True Declination
0° 00' 00"
Sunlit
Object was in daylight at epoch
Visualization orbit readout
Latitude
Unknown
Longitude
Unknown
Altitude
Unknown
Speed
Unknown
Apparent Right ascension
Unknown
Apparent Declination
Unknown
Sunlit
N/A
Visualization observer readout
Local Sidereal Time
18:18:18
Azimuth
Unknown
Elevation
Unknown
Doppler factor
Unknown
Orbital elements
Apogee altitude
886.414 km
Perigee altitude
815.294 km
Semi-major axis
7,228.991 km
Eccentricity
0.00492
Inclination
98.8353°
RAAN
259.2759°
Arg. of periapsis
67.0603°
True anomaly
293.05699°
Mean anomaly
293.5749°
Eccentric anomaly
293.31607°
Mean motion
3.53124 °/min
Orbital period
101.95 mins
BSTAR
0.00025074
Loading maneuver chart data...
Computing Atmospheric mass density...

Documentation

Showing up to 5 results
|